Regional Weather Roundup
Issued by NWS

Home | Current Version | Previous Version | Text Only | Print | Product List | Glossary Off
Versions: 1 2 3 4 5 6 7 8 9 10 11 12 13 14 15 16 17 18 19 20 21 22 23 24 25 26 27 28 29 30 31 32 33 34 35 36 37 38 39 40 41 42 43 44 45 46 47 48 49 50

000
ASUS43 KMPX 161710
RWRMN
WEATHER ROUNDUP FOR MINNESOTA
NATIONAL WEATHER SERVICE TWIN CITIES/CHANHASSEN MN
1200 PM CDT TUE SEP 16 2014


NOTE: "FAIR" INDICATES FEW OR NO CLOUDS BELOW 12,000 FEET WITH NO
SIGNIFICANT WEATHER AND/OR OBSTRUCTIONS TO VISIBILITY. N/A MEANS
CURRENT SKY AND/OR WEATHER CONDITIONS ARE NOT AVAILABLE.

MNZ060>063-068>070-161800-
   Twin Cities Metro

CITY           SKY/WX    TMP DP  RH WIND       PRES   REMARKS
TWIN CITIES    SUNNY     63  41  44 SW9       30.14F
ST PAUL        SUNNY     62  43  49 SW9G17    30.15F
CRYSTAL        SUNNY     64  42  44 W9        30.13F
LAKEVILLE      SUNNY     63  45  51 SW5       30.15F
EDEN PRAIRIE     N/A    N/A N/A N/A MISG      30.14F
SOUTH ST PAUL  SUNNY     63  42  45 SW7       30.14F
LAKE ELMO      FAIR      63  45  51 SW7       30.16F
$$
MNZ001>005-007-008-013>017-022>024-027-028-161800-
   Northwest Minnesota

CITY           SKY/WX    TMP DP  RH WIND       PRES   REMARKS
BEMIDJI        SUNNY     64  40  41 W12       30.04F
HALLOCK        MOSUNNY   61  43  51 CALM      29.99F
ROSEAU         PTSUNNY   55  45  67 W3        30.00S
WARROAD          N/A     55  46  71 SW5       30.01S
THIEF RVR FALL SUNNY     61  41  48 W8        30.03S
CROOKSTON      SUNNY     64  45  48 SW9       30.03F
FOSSTON        SUNNY     63  45  51 SW14      30.05F
DETROIT LAKES  SUNNY     63  41  45 S6        30.08F
MOORHEAD       SUNNY     63  41  45 SW8       30.06F
PARK RAPIDS    SUNNY     63  41  44 SW9       30.07F
MAHNOMEN       FAIR      63  39  41 W10       30.05F
$$
MNZ006-009>011-018-025>026-161800-
   North Central Minnesota

CITY           SKY/WX    TMP DP  RH WIND       PRES   REMARKS
BAUDETTE       CLOUDY    56  44  64 NW5       30.00S
FLAG ISLAND    SUNNY     57  46  67 CALM      29.97S
INTL FALLS     CLOUDY    56  44  64 NW7       29.99S
WASKISH        CLOUDY    57  46  67 SW12      30.01F
BIG FORK       SUNNY     64  43  45 W8        30.02S
LONGVILLE      SUNNY     63  45  51 SW7       30.06F
GRAND RAPIDS   SUNNY     61  39  44 W9G17     30.05F
CRANE LAKE     PTSUNNY   61  45  55 W7        30.00S
ORR            SUNNY     64  41  42 W8        29.97S
COOK           SUNNY     63  43  48 SW12      30.01R
WALKER         FAIR      63  40  43 W10       30.05F
$$
MNZ012-019>021-037-161800-
   Northeast Minnesota

CITY           SKY/WX    TMP DP  RH WIND       PRES   REMARKS
DULUTH         MOSUNNY   64  40  41 W15G24    30.04F
ELY            MOSUNNY   63  43  48 W10G16    29.99S
HIBBING        SUNNY     63  42  46 W10G21    30.03F
EVELETH        SUNNY     63  43  48 W15       30.03S
DULUTH HARBOR  SUNNY     64  43  45 SW15      30.05S
TWO HARBORS    SUNNY     63  43  48 W12G20    30.00S
SILVER BAY     SUNNY     64  46  52 W7        29.97F
GRAND MARAIS     N/A     55  48  77 W7        29.96F
G MARAIS ARPRT PTSUNNY   57  39  51 W9        29.98S
$$
MNZ029>031-032-039>041-046>048-054>057-064-161800-
   West Central Minnesota

CITY           SKY/WX    TMP DP  RH WIND       PRES   REMARKS
FERGUS FALLS   SUNNY     64  37  36 SE6       30.08F
WHEATON        SUNNY     64  43  45 S8        30.08F
MORRIS         SUNNY     66  41  39 S9        30.08F
ALEXANDRIA     SUNNY     62  41  46 SW10      30.11F
ELBOW LAKE     FAIR      63  42  47 S7        30.08F
WADENA         SUNNY     63  37  39 SW8       30.08F
GLENWOOD       SUNNY     63  41  45 S7        30.11F
APPLETON       SUNNY     66  45  45 SW8       30.09F
BENSON         SUNNY     63  45  51 W3        30.11F
ORTONVILLE     SUNNY     64  43  45 S6        30.08F
MADISON        SUNNY     66  45  45 SW7       30.09F
WILLMAR        FAIR      63  43  48 SW6       30.14S
$$
MNZ033>034-036-042>043-049>051-058-059-161800-
   Central Minnesota

CITY           SKY/WX    TMP DP  RH WIND       PRES   REMARKS
ST CLOUD       SUNNY     65  42  43 SW10      30.13S
SAUK CENTRE    FAIR      63  41  44 S9        30.11F
PAYNESVILLE    SUNNY     60  39  45 S9        30.13S
AITKIN         SUNNY     66  43  42 SW10G16   30.07S
PINE RIVER     SUNNY     63  43  48 SW8       30.10F
BRAINERD       SUNNY     62  39  42 W14       30.10F
STAPLES        SUNNY     64  39  39 SW7       30.09F
LONG PRAIRIE   FAIR      61  39  44 S9        30.11F
LITTLE FALLS   SUNNY     61  37  41 SW7       30.11S
LITCHFIELD     SUNNY     63  43  48 W7        30.13F
BUFFALO        SUNNY     62  42  48 SW6       30.15S
MAPLE LAKE     SUNNY     63  46  54 SW7       30.14F
$$
MNZ037-044-045-052-053-161800-
   East Central Minnesota

CITY           SKY/WX    TMP DP  RH WIND       PRES   REMARKS
PRINCETON      SUNNY     64  45  48 S7        30.12F
MORA           SUNNY     61  43  51 W10       30.13S
CAMBRIDGE      SUNNY     64  46  52 SW8       30.11S
RUSH CITY      SUNNY     63  43  48 SW5       30.12F
MOOSE LAKE     SUNNY     64  41  42 SW9       30.06F
HINCKLEY       FAIR      63  45  51 W10       30.11S
CLOQUET        SUNNY     63  37  39 W14       30.06F
MCGREGOR       SUNNY     63  41  45 W8        30.08F
$$
MNZ071>073-080-081-089-090-097-098-161800-
   Southwest Minnesota

CITY           SKY/WX    TMP DP  RH WIND       PRES   REMARKS
MONTEVIDEO     SUNNY     66  48  52 SW10      30.12F
GRANITE FALLS  SUNNY     64  45  50 S13       30.13F
CANBY          SUNNY     63  45  51 S10G16    30.11F
MARSHALL       SUNNY     63  43  48 SW14      30.11F
REDWOOD FALLS  SUNNY     63  42  46 SW13      30.13F
OLIVIA         SUNNY     63  43  48 SW12      30.12F
PIPESTONE      SUNNY     61  45  55 S12       30.12F
WINDOM         SUNNY     61  43  51 S12G18    30.15F
WORTHINGTON    SUNNY     59  43  55 SW13G21   30.16F
JACKSON        SUNNY     61  41  48 S8        30.16F
TRACY          SUNNY     63  46  54 S10G17    30.13F
SLAYTON        SUNNY     60  43  53 SW13      30.15F
$$
MNZ065>067-074>077-082>085-091>093-161800-
   South Central Minnesota

CITY           SKY/WX    TMP DP  RH WIND       PRES   REMARKS
MANKATO        SUNNY     63  43  48 W10G16    30.16F
NEW ULM        SUNNY     63  45  51 SW7       30.14F
ST JAMES       SUNNY     63  41  45 S10       30.16F
FAIRMONT       SUNNY     63  39  42 SW10G16   30.17F
GLENCOE        SUNNY     63  41  44 SW6       30.14F
FARIBAULT      SUNNY     66  39  37 W9        30.16F
OWATONNA       SUNNY     63  43  48 SW8       30.16F
WASECA         SUNNY     61  36  39 SW7       30.18F
ALBERT LEA     SUNNY     61  41  48 SW8       30.17F
$$
MNZ078>079-086>088-094>096-161800-
   Southeast Minnesota

CITY           SKY/WX    TMP DP  RH WIND       PRES   REMARKS
ROCHESTER      SUNNY     61  32  33 SW8G16    30.18F
RED WING       SUNNY     63  41  45 W6        30.15F
STANTON        SUNNY     63  43  49 W8        30.15S
DODGE CENTER   MOSUNNY   61  45  55 SW8       30.17F
WINONA         SUNNY     61  41  48 W3        30.17F
AUSTIN         SUNNY     61  45  55 W6        30.17F
PRESTON        MOSUNNY   59  48  65 SW9       30.19F
$$
ABBREVIATIONS USED IN REMARKS
   TC - TEMPERATURES IN CELSIUS
  WCI - WIND CHILL INDEX
   HX - HEAT INDEX
  VSB - VISIBILITY
$$



USA.gov is the U.S. government's official web portal to all federal, state and local government web resources and services.